Home   Weather   Port-aux-Francais   Past weeks

Flag for French Southern Territories Past Weather in Port-aux-Francais, French Southern Territories — Yesterday and Last 2 Weeks

Now
45 °F

Cool.


Feels Like: 37 °F
Forecast: 42 / 46 °F
Wind: 22 mph from West

Location: Port-Aux-Francais Iles Kerguelen

Current Time: Apr 28, 2017 at 3:24:45 pm

Latest Report: Apr 28, 2017 at 3:00 pm


Visibility: N/A

Pressure: 29.83 "Hg

Humidity: 73%

Dew Point: 37 °F

Location of Port-aux-FrancaisLocation

Past Weather in Port-aux-Francais — Graph

°F

Port-aux-Francais Temperature Yesterday

Maximum temperature yesterday: 41 °F (at 12:00 pm)
Minimum temperature yesterday: 36 °F (at 4:00 am)
Average temperature yesterday: 38 °F

High & Low Weather Summary for the Past Weeks

 TemperatureHumidityPressure
High57 °F (Apr 15, 2:00 am)100% (Apr 23, 8:00 pm)30.33 "Hg (Apr 23, 8:00 pm)
Low30 °F (Apr 23, 3:00 am)35% (Apr 21, 12:00 pm)28.53 "Hg (Apr 25, 4:00 am)
Average41 °F73%29.50 "Hg
* Reported Apr 13 2:00 pm — Apr 28 2:00 pm, Port-aux-Francais, Weather by CustomWeather, © 2017

Note: Actual official high and low records may vary slightly from our data, if they occured in-between our weather recording intervals... More about our weather records

Advertising

Port-aux-Francais Weather History for the Previous 24 Hours

Scroll right to see more
 ConditionsComfort  
Time TempWeatherWind HumidityBarometerVisibility
2:00 pm
Fri, Apr 28
45 °FCool.21 mph75%29.80 "HgN/A
1:00 pm45 °FQuite cool.30 mph75%29.77 "HgN/A
12:00 pm46 °FCool.30 mph72%29.75 "HgN/A
11:00 am44 °FQuite cool.28 mph73%29.74 "HgN/A
10:00 am43 °FQuite cool.29 mph74%29.71 "HgN/A
9:00 am42 °FQuite cool.36 mph71%29.70 "HgN/A
8:00 am41 °FQuite cool.32 mph72%29.70 "HgN/A
7:00 am39 °FChilly.25 mph68%29.69 "HgN/A
6:00 am38 °FChilly.28 mph69%29.71 "HgN/A
5:00 am38 °FChilly.23 mph70%29.72 "HgN/A
4:00 am36 °FChilly.16 mph72%29.73 "HgN/A
3:00 am37 °FChilly.20 mph76%29.74 "HgN/A
2:00 am37 °FChilly.25 mph66%29.72 "HgN/A
1:00 am37 °FChilly.30 mph67%29.72 "HgN/A
12:00 am37 °FChilly.20 mph61%29.72 "HgN/A
11:00 pm
Thu, Apr 27
37 °FChilly.22 mph61%29.71 "HgN/A
10:00 pm37 °FChilly.16 mph67%29.69 "HgN/A
9:00 pm36 °FChilly.25 mph79%29.67 "HgN/A
8:00 pm38 °FChilly.29 mph64%29.65 "HgN/A
7:00 pm38 °FChilly.28 mph69%29.61 "HgN/A
6:00 pm37 °FChilly.28 mph76%29.58 "HgN/A
5:00 pm37 °FPartly sunny.28 mph82%29.53 "Hg6 mi
4:00 pm39 °FChilly.28 mph75%29.47 "HgN/A
3:00 pm39 °FChilly.25 mph81%29.44 "HgN/A
Weather by CustomWeather, © 2017

See weather overviewHow to use our weather pages